Location: Montreal
(45.5000°N, 73.5833°W)
Time: 06:27:18
(UTC-04:00)

Vanguard 1 Rocket - All Passes

Search period start: 21 October 2017 00:00
Search period end: 31 October 2017 00:00
Orbit: 655 x 4222 km, 34.3° (Epoch: 20 October)

Date Brightness Start Highest point End Pass type
(mag) Time Alt. Az. Time Alt. Az. Time Alt. Az.
21 Oct - 05:48:14 10° S 05:52:25 13° SSE 05:55:45 10° SE visible
21 Oct - 08:12:03 10° SW 08:17:31 23° S 08:21:29 10° ESE daylight
21 Oct - 10:38:00 10° WSW 10:41:40 20° S 10:44:59 10° SE daylight
22 Oct - 07:00:18 10° SW 07:06:43 22° S 07:11:09 10° ESE daylight
22 Oct - 09:26:27 10° WSW 09:31:15 25° S 09:35:00 10° SE daylight
22 Oct - 11:53:13 10° SW 11:55:09 12° SSW 11:57:06 10° S daylight
23 Oct - 05:48:39 10° SSW 05:55:37 19° SSE 06:00:30 10° ESE visible
23 Oct - 08:14:31 10° SW 08:20:43 27° S 08:24:59 10° ESE daylight
23 Oct - 10:41:17 10° WSW 10:44:46 19° SSW 10:47:53 10° SSE daylight
24 Oct - 04:37:39 10° S 04:44:10 15° SSE 04:49:04 10° SE visible
24 Oct - 07:02:16 10° SW 07:09:55 27° S 07:14:52 10° ESE daylight
24 Oct - 09:29:23 10° WSW 09:34:23 25° S 09:38:13 10° SE daylight
25 Oct - 03:28:54 10° SSE 03:32:23 11° SSE 03:35:26 10° SE visible
25 Oct - 05:49:54 10° SW 05:58:48 25° SSE 06:04:30 10° ESE visible
25 Oct - 08:17:09 10° WSW 08:23:52 30° S 08:28:22 10° ESE daylight
25 Oct - 10:44:44 10° WSW 10:47:49 16° SSW 10:50:34 10° SSE daylight
26 Oct - 04:37:48 10° SSW 04:47:20 21° SSE 04:53:41 10° ESE visible
26 Oct - 07:04:29 10° SW 07:13:05 32° S 07:18:23 10° ESE daylight
26 Oct - 09:32:25 10° WSW 09:37:29 24° SSW 09:41:18 10° SE daylight
27 Oct - 03:26:36 10° S 03:35:29 17° SSE 03:41:56 10° ESE visible
27 Oct - 05:51:34 10° SW 06:01:58 30° S 06:08:12 10° ESE visible
27 Oct - 08:19:52 10° WSW 08:27:00 31° S 08:31:39 10° SE daylight
27 Oct - 10:48:30 10° SW 10:50:46 13° SSW 10:52:50 10° S daylight
28 Oct - 02:18:02 10° SSE 02:23:18 12° SSE 02:27:47 10° SE visible
28 Oct - 04:38:42 10° SSW 04:50:28 27° SSE 04:57:41 10° ESE visible
28 Oct - 07:06:52 10° WSW 07:16:14 35° S 07:21:47 10° ESE daylight
28 Oct - 09:35:32 10° WSW 09:40:30 22° SSW 09:44:15 10° SSE daylight
29 Oct - 03:26:23 10° SSW 03:38:33 23° SSE 03:46:33 10° ESE visible
29 Oct - 05:53:29 10° SW 06:05:06 36° S 06:11:44 10° ESE visible
29 Oct - 08:22:40 10° WSW 08:30:05 31° SSW 08:34:51 10° SE daylight
30 Oct - 02:15:23 10° S 02:26:16 18° SSE 02:34:15 10° ESE visible
30 Oct - 04:40:02 10° SW 04:53:33 34° SSE 05:01:22 10° ESE visible
30 Oct - 07:09:22 10° WSW 07:19:20 38° S 07:25:07 10° ESE daylight
30 Oct - 09:38:46 10° WSW 09:43:27 19° SSW 09:47:01 10° SSE daylight
